Regional Weather Roundup
Issued by NWS

Home | Current Version | Previous Version | Graphics & Text | Print | Product List | Glossary On
Versions: 1 2 3 4 5 6 7 8 9 10 11 12 13 14 15 16 17 18 19 20 21 22 23 24 25 26 27 28 29 30 31 32 33 34 35 36 37 38 39 40 41 42 43 44 45 46 47 48 49 50
000
ASUS43 KIND 251259
RWRIN

WEATHER ROUNDUP FOR INDIANA
NATIONAL WEATHER SERVICE INDIANAPOLIS IN
900 AM EDT TUE JUL 25 2017

NOTE: "FAIR" INDICATES FEW OR NO CLOUDS BELOW 12,000 FEET WITH NO
SIGNIFICANT WEATHER AND/OR OBSTRUCTIONS TO VISIBILITY.

* - STATION DOES NOT REPORT WEATHER SUCH AS PRECIPITATION OR FOG.

+ - STATION NOT QUALITY CONTROLLED BY THE NATIONAL WEATHER SERVICE.
    USE DATA WITH CAUTION...ESPECIALLY DEWPOINT AND RELATIVE
    HUMIDITY OBSERVATIONS.

INZ001>003-010>013-019-020-251400-
NORTHWEST INDIANA

CITY           SKY/WX    TMP DP  RH WIND       PRES   REMARKS
GARY /AIRPORT/ MOSUNNY   68  59  73 SE8       30.22R
MICHIGAN CITY+ SUNNY     64  61  88 SE5       30.23R
MONTICELLO +   SUNNY     65  60  85 E5        30.21R
RENSSELAER +   SUNNY     64  61  88 E5        30.21R

$$

LMZ046-743>745-251400-
SOUTHERN LAKE MICHIGAN

STATION/POSITION TIME  TEMP    WIND        PRES    WAVE
                       AIR SEA DIR/SP/G            HT
                 (UTC) (F)     (DEG/KT/KT) (MB)    (FT)
BURNS HARBOR     1240   68     120/  5/  7 1023.4R
MICHIGAN CITY    1210   64     110/  7/  9   N/A
5NW MICH CITY    1250   67 74  140/ 10/ 12   N/A     2

$$

INZ004-005-014>016-021>024-251400-
NORTH CENTRAL INDIANA

CITY           SKY/WX    TMP DP  RH WIND       PRES   REMARKS
ELKHART        SUNNY    N/A N/A N/A CALM      30.22R
GOSHEN         SUNNY     66  56  70 E3        30.22S
SOUTH BEND     SUNNY     66  56  70 SE7       30.23R
WARSAW +       SUNNY     63  55  77 E3        30.23R

$$

INZ006>009-017-018-025>027-251400-
NORTHEAST INDIANA

CITY           SKY/WX    TMP DP  RH WIND       PRES   REMARKS
FORT WAYNE     MOSUNNY   66  55  67 NE7       30.24R
KENDALLVILLE + SUNNY     65  57  77 CALM      30.24R

$$

INZ028-029-035-036-043>045-051>053-251400-
WEST CENTRAL INDIANA

CITY           SKY/WX    TMP DP  RH WIND       PRES   REMARKS
LAFAYETTE      SUNNY     66  60  81 E8        30.21R
TERRE HAUTE    SUNNY     67  60  78 E9        30.18R

$$

INZ030>032-037>040-046>048-054>057-064-065-251400-
CENTRAL INDIANA

CITY           SKY/WX    TMP DP  RH WIND       PRES   REMARKS
ANDERSON       SUNNY     66  59  77 MISG        N/A
COLUMBUS       MOSUNNY   64  59  82 E5        30.20R
FRANKFORT +    SUNNY     67  62  83 SE7       30.23R
GREENWOOD *+   SUNNY    N/A N/A N/A E6        30.20S
INDIANAPOLIS   MOSUNNY   68  57  68 E12       30.19R
-EAGLE CREEK   SUNNY     69  57  65 E6        30.20R
KOKOMO +       MOSUNNY   65  60  84 E6        30.23R
MT COMFORT *+  SUNNY     64  61  88 E5        30.20S
SHELBYVILLE    SUNNY     67  59  75 E7        30.19R

$$

INZ033-034-041-042-049-050-058-059-251400-
EAST CENTRAL INDIANA

CITY           SKY/WX    TMP DP  RH WIND       PRES   REMARKS
MUNCIE         SUNNY     67  59  75 E7        30.22R
RICHMOND +     SUNNY     63  61  94 E8        30.23R

$$

INZ060-061-067>069-081>083-085>088-251400-
SOUTHWEST INDIANA

CITY           SKY/WX    TMP DP  RH WIND       PRES   REMARKS
EVANSVILLE     PTSUNNY   72  65  78 E9        30.13R
HUNTINGBURG *+ SUNNY     71  64  78 E7        30.14S

$$

INZ062-063-066-070>080-084-089>092-251400-
SOUTH CENTRAL AND SOUTHEAST INDIANA

CITY           SKY/WX    TMP DP  RH WIND       PRES   REMARKS
BLOOMINGTON    SUNNY     69  58  67 E10       30.18R
MADISON *+     SUNNY     68  59  73 E9        30.20S
SEYMOUR +      MOSUNNY  N/A N/A N/A E6        30.17F

$$





USA.gov is the U.S. government's official web portal to all federal, state and local government web resources and services.